Tracking 18816 objects as of 16-October-2017
HD Live streaming from Space Station
objects crossing your sky now

QZS-4

Track QZS-4 now!


NORAD ID: 42965
Int'l Code: 2017-062A
Perigee: 36,006.5 km
Apogee: 38,931.4 km
Inclination: 40.4 °
Period: 1,522.5 minutes
Semi major axis: 43839 km
RCS: Unknown
Launch date: October 9, 2017
Source: Japan (JPN)
Launch site: TANEGASHIMA SPACE CENTER (TNSTA)
aabbcc
Your satellite tracking list
Your tracking list is empty





NASA's NSSDC Master Catalog

Two Line Element Set (TLE):
1 42965U 17062A   17289.71035806 -.00000232  00000-0  00000+0 0  9996
2 42965  40.4433  24.6763 0333583 269.3694 124.4095  0.94579728    82
Source of the keplerian elements: AFSPC